• Join FlightAware (Why Join?)
  • Login
  • US Flag 
01:42PM EDT


 

Airport Tracker/Info


-or-


 

Live Flight TrackerFlight Track Log ✈ SWA1761 ✈ 03-May-2013 ✈ KMDW - KMSY

Flight Track Log - Related Links

Times and Time Zones

All times are in EDT time to prevent confusion due to time zone crossing. See the SWA1761 flight status page for this flight to view local times or setup timezone preferences in your user account.

Time Position Orientation Groundspeed Altitude Reporting Facility
EDT Latitude Longitude Course Direction KTS MPH feet Rate Location/Type
04:07PM 41.8167 -87.7333 196° South 210 242 3,300  Level Chicago TRACON
04:09PM 41.6986 -87.7744 195° South 254 292 10,000 3,060 Climbing Chicago Center
04:10PM 41.6347 -87.8303 213° Southwest 271 312 13,100 2,220 Climbing Chicago Center
04:11PM 41.5581 -87.8978 213° Southwest 333 383 14,600 2,460 Climbing Chicago Center
04:12PM 41.3321 -88.0422 196° South  Level FlightAware Approximate
04:12PM 41.4561 -87.9869 213° Southwest 363 418 18,300  Level Chicago Center
04:13PM 41.3769 -88.0450 209° Southwest 365 420 20,400 2,160 Climbing Chicago Center
04:14PM 41.2492 -88.0839 193° South 391 450 22,800 2,220 Climbing Chicago Center
04:15PM 41.1381 -88.1161 192° South 406 467 25,100 2,040 Climbing Chicago Center
04:16PM 41.0264 -88.1486 192° South 412 474 27,100 1,680 Climbing Chicago Center
04:17PM 40.9117 -88.1753 190° South 418 481 28,600 1,500 Climbing Chicago Center
04:18PM 40.7919 -88.2033 190° South 434 499 30,300 1,980 Climbing Chicago Center
04:20PM 40.6522 -88.2389 191° South 430 495 32,800 2,040 Climbing Chicago Center
04:21PM 40.5372 -88.2664 190° South 424 488 34,600 1,680 Climbing Chicago Center
04:22PM 40.4264 -88.2939 191° South 411 473 36,300 1,560 Climbing Chicago Center
04:23PM 40.3175 -88.3203 190° South 402 463 37,900 780 Climbing Chicago Center
04:24PM 40.2108 -88.3475 191° South 395 455 38,000  Climbing Chicago Center
04:25PM 40.0917 -88.3758 190° South 395 455 38,000  Level Chicago Center
04:26PM 39.9847 -88.3992 189° South 392 451 38,000  Level Kansas City Center
04:27PM 39.8769 -88.4244 190° South 393 452 38,000  Level Kansas City Center
04:28PM 39.7694 -88.4500 190° South 392 451 38,000  Level Kansas City Center
04:29PM 39.6544 -88.4753 190° South 390 449 38,000  Level Kansas City Center
04:30PM 39.5461 -88.5039 192° South 393 452 38,000  Level Kansas City Center
04:31PM 39.4381 -88.5311 191° South 395 455 38,000  Level Kansas City Center
04:32PM 39.3306 -88.5564 190° South 393 452 38,000  Level Kansas City Center
04:33PM 39.2239 -88.5817 190° South 390 449 38,000  Level Kansas City Center
04:34PM 39.1156 -88.6067 190° South 393 452 38,000  Level Kansas City Center
04:35PM 39.0011 -88.6328 190° South 391 450 38,000  Level Kansas City Center
04:36PM 38.8933 -88.6581 190° South 391 450 38,000  Level Kansas City Center
04:37PM 38.7650 -88.6881 190° South 392 451 38,000  Level Kansas City Center
04:38PM 38.6569 -88.7128 190° South 391 450 38,000  Level Kansas City Center
04:39PM 38.5408 -88.7247 185° South 400 460 38,000  Level Kansas City Center
04:40PM 38.4333 -88.7186 177° South 389 448 38,000  Level Kansas City Center
04:41PM 38.3300 -88.7125 177° South 391 450 38,000  Level Kansas City Center
04:42PM 38.2228 -88.7067 178° South 387 445 38,000  Level Kansas City Center
04:43PM 38.1133 -88.7342 191° South 395 455 38,000  Level Kansas City Center
04:44PM 37.9822 -88.7661 191° South 399 459 38,000  Level Kansas City Center
04:45PM 37.8731 -88.7928 191° South 399 459 38,000  Level Kansas City Center
04:46PM 37.7744 -88.8158 190° South 391 450 38,000  Level Kansas City Center
04:47PM 37.6458 -88.8464 191° South 390 449 38,000  Level Kansas City Center
04:48PM 37.5386 -88.8725 191° South 391 450 38,000  Level Kansas City Center
04:49PM 37.4358 -88.9047 194° South 390 449 38,000  Level Memphis Center
04:50PM 37.3278 -88.9303 191° South 390 449 38,000  Level Memphis Center
04:51PM 37.2197 -88.9556 191° South 390 449 38,000  Level Memphis Center
04:52PM 37.1097 -88.9808 190° South 395 455 38,000  Level Memphis Center
04:53PM 37.0036 -89.0061 191° South 395 455 38,000  Level Memphis Center
04:54PM 36.8914 -89.0314 190° South 395 455 38,000  Level Memphis Center
04:55PM 36.7833 -89.0539 189° South 395 455 38,000  Level Memphis Center
04:56PM 36.6794 -89.0789 191° South 388 447 38,000  Level Memphis Center
04:57PM 36.5692 -89.1039 190° South 388 447 38,000  Level Memphis Center
04:58PM 36.4528 -89.1264 189° South 393 452 38,000  Level Memphis Center
04:59PM 36.3403 -89.1511 190° South 393 452 38,000  Level Memphis Center
05:00PM 36.2322 -89.1786 192° South 403 464 38,000  Level Memphis Center
05:01PM 36.1239 -89.2058 191° South 403 464 38,000  Level Memphis Center
05:02PM 36.0200 -89.2303 191° South 397 457 38,000  Level Memphis Center
05:03PM 35.9139 -89.2550 191° South 392 451 38,000  Level Memphis Center
05:04PM 35.8097 -89.2794 191° South 392 451 38,000  Level Memphis Center
05:05PM 35.6994 -89.3039 190° South 392 451 38,000  Level Memphis Center
05:06PM 35.6100 -89.3253 191° South 381 438 38,000  Level Memphis Center
05:07PM 35.5039 -89.3469 189° South 386 444 38,000  Level Memphis Center
05:08PM 35.3853 -89.3767 192° South 391 450 38,000  Level Memphis Center
05:09PM 35.2747 -89.4008 190° South 391 450 38,000  Level Memphis Center
05:10PM 35.1644 -89.4250 190° South 391 450 38,000  Level Memphis Center
05:11PM 35.0561 -89.4489 190° South 391 450 38,000  Level Memphis Center
05:12PM 34.9458 -89.4703 189° South 397 457 38,000  Level Memphis Center
05:13PM 34.8333 -89.4969 191° South 409 471 38,000  Level Memphis Center
05:14PM 34.7311 -89.5181 190° South 409 471 38,000  Level Memphis Center
05:15PM 34.6228 -89.5469 192° South 409 471 38,000  Level Memphis Center
05:16PM 34.5125 -89.5708 190° South 409 471 38,000  Level Memphis Center
05:17PM 34.4042 -89.5969 191° South 404 465 38,000  Level Memphis Center
05:18PM 34.2872 -89.6206 189° South 398 458 38,000  Level Memphis Center
05:19PM 34.1789 -89.6442 190° South 398 458 38,000  Level Memphis Center
05:20PM 34.0747 -89.6675 191° South 391 450 38,000  Level Memphis Center
05:21PM 33.9664 -89.6911 190° South 391 450 38,000  Level Memphis Center
05:22PM 33.8600 -89.7169 191° South 391 450 38,000 -180 Level Memphis Center
05:23PM 33.7664 -89.7400 192° South 391 450 37,700 -540 Descending Memphis Center
05:24PM 33.6600 -89.7633 190° South 391 450 37,000 -360 Descending Memphis Center
05:25PM 33.5536 -89.7864 190° South 391 450 37,000  Level Memphis Center
05:26PM 33.4431 -89.8094 190° South 391 450 37,000  Level Memphis Center
05:27PM 33.3367 -89.8325 190° South 391 450 37,000  Level Memphis Center
05:28PM 33.3317 -89.8237 190° South  Level FlightAware Approximate
05:28PM 33.2283 -89.8556 190° South 391 450 37,000  Level Memphis Center
05:29PM 33.1197 -89.8786 190° South 391 450 37,000  Level Memphis Center
05:30PM 33.0008 -89.9039 190° South 391 450 37,000  Level Memphis Center
05:31PM 32.8986 -89.9217 188° South 402 463 37,000  Level Memphis Center
05:32PM 32.7778 -89.9519 192° South 402 463 37,000  Level Memphis Center
05:33PM 32.6692 -89.9747 190° South 407 468 37,000  Level Memphis Center
05:34PM 32.5608 -89.9975 190° South 407 468 37,000  Level Memphis Center
05:35PM 32.4544 -90.0200 190° South 407 468 37,000  Level Memphis Center
05:36PM 32.3417 -90.0425 190° South 407 468 37,000  Level Memphis Center
05:37PM 32.2311 -90.0650 190° South 407 468 37,000 -240 Level Memphis Center
05:38PM 32.1225 -90.0900 191° South 407 468 36,600 -780 Descending Memphis Center
05:39PM 32.0119 -90.1100 189° South 407 468 35,500 -2,280 Descending Memphis Center
05:41PM 31.8267 -90.1489 190° South 412 474 30,300 -2,640 Descending Houston Center
05:42PM 31.6969 -90.1769 190° South 398 458 28,000 -1,140 Descending Houston Center
05:43PM 31.5911 -90.1878 185° South 388 447 28,000  Level Houston Center
05:44PM 31.4792 -90.1881 180° South 400 460 28,000 -360 Level Houston Center
05:45PM 31.3686 -90.1903 181° South 398 458 27,300 -1,440 Descending Houston Center
05:46PM 31.2614 -90.1908 180° South 390 449 25,100 -2,280 Descending Houston Center
05:47PM 31.1367 -90.1936 181° South 376 433 22,600 -2,280 Descending Houston Center
05:49PM 31.0369 -90.1947 181° South 363 418 20,500 -2,040 Descending Houston Center
05:50PM 30.9400 -90.1961 181° South 352 405 18,500 -1,980 Descending Houston Center
05:51PM 30.8436 -90.1981 181° South 348 400 16,500 -2,220 Descending Houston Center
05:51PM 30.7892 -90.1992 181° South 346 398 15,400 -2,040 Descending Houston Center
05:52PM 30.7472 -90.1989 180° South 348 400 14,400 -2,100 Descending Houston Center
05:52PM 30.6639 -90.1994 180° South 347 399 12,700 -2,340 Descending Houston Center
05:53PM 30.6325 -90.2011 183° South 345 397 12,000 -1,860 Descending Houston Center
05:53PM 30.5972 -90.2022 182° South 345 397 11,400 -1,560 Descending Houston Center
05:54PM 30.5397 -90.2033 181° South 340 391 10,400 -1,200 Descending Houston Center
05:54PM 30.5075 -90.2058 184° South 322 371 10,200 -600 Descending Houston Center
05:55PM 30.4581 -90.2081 182° South 307 353 9,800 -1,140 Descending Houston Center
05:56PM 30.3847 -90.2058 179° South 276 318 8,300 -1,680 Descending Houston Center
05:56PM 30.3317 -90.1961 171° South 273 314 7,100 -1,560 Descending Houston Center
05:57PM 30.3108 -90.1869 159° South 289 333 6,700 -1,380 Descending Houston Center
05:57PM 30.2639 -90.1678 161° South 276 318 5,900 -1,680 Descending Houston Center
05:58PM 30.2275 -90.1489 156° South 275 316 5,000 -1,440 Descending Houston Center
05:58PM 30.1897 -90.1347 162° South 270 311 4,300 -1,020 Descending Houston Center
05:59PM 30.1575 -90.1189 157° South 271 312 4,000 -300 Descending Houston Center
05:59PM 30.1175 -90.1017 160° South 269 310 4,000 -120 Level Houston Center
06:00PM 30.0881 -90.0883 159° South 270 311 3,900 -480 Descending Houston Center
06:01PM 30.0250 -90.0917 183° South 247 284 3,300 -960 Descending Houston Center
06:02PM 29.9817 -90.0978 187° South 209 241 2,400 -1,140 Descending Houston Center
06:02PM 29.9594 -90.1203 221° Southwest 184 212 2,000 -600 Descending Houston Center
06:03PM 29.9675 -90.1617 283° West 176 203 1,500 -600 Descending Houston Center
06:04PM 29.9778 -90.2011 287° West 148 170 900 -600 Descending Houston Center
06:04PM 29.9789 -90.2131 276° West 116 133 700 -420 Descending Houston Center
06:05PM 29.9861 -90.2339 292° West 137 158 500 -300 Descending Houston Center